Alliance, NE

4:49 AM MDT on June 25, 2017 (GMT -0600)
Alliance Municipal

Weather History for KAIA - July, 2013

Change the Weather History Date:

Friday, July 19, 2013

  Actual Average Record
Temperature  
Mean Temperature 76 °F 73 °F  
Max Temperature 89 °F 89 °F 110 °F (1983)
Min Temperature 63 °F 57 °F 47 °F (1906)
Degree Days  
Heating Degree Days 0 0  
Month to date heating degree days 0 5  
Since 1 June heating degree days 62 98  
Since 1 July heating degree days 0 5  
Cooling Degree Days 11 8  
Month to date cooling degree days 177 133  
Year to date cooling degree days 323 231  
Since 1 June cooling degree days 301 221  
Growing Degree Days 26 (Base 50)    
Moisture  
Dew Point 56 °F    
Average Humidity 54    
Maximum Humidity 81    
Minimum Humidity 27    
Precipitation  
Precipitation 0.00 in 0.09 in 1.14 in (1999)
Month to date precipitation T 1.52  
Year to date precipitation 6.72 9.91  
Sea Level Pressure  
Sea Level Pressure 29.96 in    
Wind  
Wind Speed 10 mph (SE)    
Max Wind Speed 17 mph    
Max Gust Speed 23 mph    
Visibility 10 miles    
Events      
T = Trace of Precipitation, MM = Missing Value Source: NWS Daily Summary

Daily Weather History Graph

Daily Weather History Graph

Search for Another Location

Airport or City:

Trip Planner

Search our weather history database for the weather conditions in past years. The results will help you decide how hot, cold, wet, or windy it might be!

Date:

Astronomy

Jul. 19, 2013 Rise Set
Actual Time 5:32 AM MDT 8:22 PM MDT
Civil Twilight 4:59 AM MDT 8:54 PM MDT
Nautical Twilight 4:17 AM MDT 9:36 PM MDT
Astronomical Twilight 3:29 AM MDT 10:24 PM MDT
Moon 5:26 PM MDT (7/19) 2:15 AM MDT (7/19)
Length of Visible Light 15h 55m
Length of Day
14h 49m
Waxing Gibbous, 87% of the Moon is Illuminated
Jul 19
Waxing Gibbous
Jul 22
Full
Jul 29
Last Quarter
Aug 6
New
Aug 14
First Quarter

Hourly Weather History & Observations

Time (MDT) Temp. Heat Index Dew Point Humidity Pressure Visibility Wind Dir Wind Speed Gust Speed Precip Events Conditions
12:39 AM 73.4 °F - 66.2 °F 78% 30.08 in 10.0 mi Calm Calm - N/A   Clear
12:53 AM 72.0 °F - 64.9 °F 78% 29.93 in 10.0 mi WSW 3.5 mph - N/A   Scattered Clouds
1:53 AM 71.1 °F - 63.0 °F 75% 29.92 in 10.0 mi West 5.8 mph - N/A   Clear
2:53 AM 70.0 °F - 63.0 °F 78% 29.91 in 10.0 mi WNW 6.9 mph - N/A   Scattered Clouds
3:53 AM 71.1 °F - 62.1 °F 73% 29.92 in 10.0 mi North 8.1 mph - N/A   Partly Cloudy
4:53 AM 69.1 °F - 62.1 °F 78% 29.95 in 10.0 mi NE 6.9 mph - N/A   Clear
5:53 AM 68.0 °F - 62.1 °F 81% 29.97 in 10.0 mi NE 8.1 mph - N/A   Clear
6:53 AM 70.0 °F - 61.0 °F 73% 29.98 in 10.0 mi North 8.1 mph - N/A   Clear
7:53 AM 73.0 °F - 60.1 °F 64% 30.01 in 10.0 mi NNE 11.5 mph - N/A   Scattered Clouds
8:53 AM 72.0 °F - 60.1 °F 66% 30.03 in 10.0 mi NNE 11.5 mph - N/A   Overcast
9:53 AM 80.1 °F 79.9 °F 53.1 °F 39% 30.02 in 10.0 mi NE 12.7 mph - N/A   Clear
10:53 AM 84.0 °F - 50.0 °F 31% 30.01 in 10.0 mi NE 12.7 mph - N/A   Clear
11:53 AM 84.0 °F - 50.0 °F 31% 30.02 in 10.0 mi NNE 10.4 mph - N/A   Mostly Cloudy
12:53 PM 86.0 °F - 50.0 °F 29% 30.00 in 10.0 mi North 13.8 mph 21.9 mph N/A   Mostly Cloudy
1:53 PM 86.0 °F - 48.9 °F 28% 29.98 in 10.0 mi Variable 5.8 mph - N/A   Partly Cloudy
2:53 PM 89.1 °F - 51.1 °F 27% 29.96 in 10.0 mi SSE 10.4 mph 17.3 mph N/A   Clear
3:53 PM 88.0 °F - 51.1 °F 28% 29.94 in 10.0 mi South 12.7 mph - N/A   Clear
4:53 PM 88.0 °F - 51.1 °F 28% 29.94 in 10.0 mi SSE 11.5 mph - N/A   Clear
5:53 PM 84.0 °F - 51.1 °F 32% 29.93 in 10.0 mi South 9.2 mph - N/A   Clear
6:53 PM 82.9 °F - 48.9 °F 31% 29.92 in 10.0 mi SSE 10.4 mph - N/A   Clear
7:53 PM 79.0 °F - 51.1 °F 38% 29.91 in 10.0 mi South 11.5 mph - N/A   Clear
8:53 PM 73.0 °F - 52.0 °F 48% 29.92 in 10.0 mi South 8.1 mph - N/A   Clear
9:53 PM 66.0 °F - 53.1 °F 63% 29.94 in 10.0 mi South 5.8 mph - N/A   Clear
10:53 PM 64.0 °F - 54.0 °F 70% 29.94 in 10.0 mi SSW 8.1 mph - N/A   Clear
11:53 PM 68.0 °F - 55.9 °F 65% 29.91 in 10.0 mi SW 11.5 mph - N/A   Clear